Overview Statistics Trail Chart Weather Telemetry Raw packets
 

This is the latest recevied weather packets stored in our database for station/object KQ7A. If no packets are shown the sender has not sent any weather packets the latest 10 day(s).

<< 32 33 34 35 36 37 38 >>
Time Temp. Humidity Pressure Rain* Wind** Luminosity Snow
1788459998 21.11° C 31% 1015.2 hPa 0 mm - 932 W/m² -
1788459694 21.67° C 31% 1015 hPa 0 mm - 778 W/m² -
1788459392 21.11° C 30% 1015.3 hPa 0 mm - 906 W/m² -
1788459087 20.56° C 31% 1015.3 hPa 0 mm - 964 W/m² -
1788458782 20.56° C 30% 1015.4 hPa 0 mm - 321 W/m² -
1788458477 21.11° C 31% 1015.1 hPa 0 mm - 966 W/m² -
1788458176 20.56° C 32% 1015.2 hPa 0 mm - 915 W/m² -
1788457875 20.56° C 30% 1015.2 hPa 0 mm - 896 W/m² -
1788457570 21.11° C 33% 1015.3 hPa 0 mm - 880 W/m² -
1788457265 21.11° C 29% 1015.5 hPa 0 mm - 839 W/m² -
1788456959 20.56° C 32% 1015 hPa 0 mm - 668 W/m² -
1788456656 20.56° C 30% 1015.4 hPa 0 mm - 831 W/m² -
1788456350 20.56° C 32% 1015.3 hPa 0 mm - 145 W/m² -
1788456046 20.56° C 32% 1015.2 hPa 0 mm - 769 W/m² -
1788455740 20° C 32% 1015.2 hPa 0 mm - 764 W/m² -
1788455436 20° C 32% 1015.6 hPa 0 mm - 455 W/m² -
1788455135 20.56° C 30% 1015.6 hPa 0 mm - 720 W/m² -
1788454831 20.56° C 35% 1015.5 hPa 0 mm - 727 W/m² -
1788454528 20° C 33% 1015.8 hPa 0 mm - 662 W/m² -
1788454223 19.44° C 33% 1015.8 hPa 0 mm - 658 W/m² -
1788453918 20° C 33% 1015.8 hPa 0 mm - 631 W/m² -
1788453614 19.44° C 33% 1016.1 hPa 0 mm - 603 W/m² -
1788453309 18.89° C 37% 1016.2 hPa 0 mm - 560 W/m² -
1788453004 18.33° C 33% 1016.3 hPa 0 mm - 514 W/m² -
1788452701 18.33° C 34% 1016.2 hPa 0 mm - 449 W/m² -

* Rain latest hour (hover to see other rain measurements)
** Current wind speed in m/s (hover to see current wind gust speed)